Location: Aalen
(48.8330°N, 10.1000°E)
Time: 06:04:56
(UTC+01:00)

O/OREOS (USA 219) - Visible Passes

Search period start: 27 February 2024 00:00
Search period end: 08 March 2024 00:00
Orbit: 621 x 646 km, 72.0° (Epoch: 22 May)

Date Brightness Start Highest point End Pass type
(mag) Time Alt. Az. Time Alt. Az. Time Alt. Az.
27 Feb ? 06:15:41 10° SSW 06:20:15 79° ESE 06:24:53 10° NNE visible
28 Feb ? 04:59:54 10° SSE 05:03:19 21° ESE 05:06:46 10° NE visible
29 Feb ? 05:20:48 10° S 05:25:06 42° ESE 05:29:27 10° NE visible
01 Mar ? 04:07:03 10° ESE 04:08:27 11° E 04:09:50 10° ENE visible
01 Mar ? 05:42:28 10° SSW 05:47:04 86° ESE 05:51:42 10° NNE visible
02 Mar ? 04:26:29 10° SSE 04:30:05 23° ESE 04:33:43 10° NE visible
02 Mar ? 06:04:45 10° SW 06:09:12 48° WNW 06:13:42 10° NNE visible
03 Mar ? 04:48:16 14° S 04:51:53 46° ESE 04:56:19 10° NE visible
04 Mar ? 03:33:17 10° ESE 03:35:12 13° E 03:37:08 10° ENE visible
04 Mar ? 05:10:46 21° SSW 05:13:53 86° WNW 05:18:32 10° NNE visible
05 Mar ? 03:55:37 23° SE 03:56:51 25° ESE 04:00:38 10° NE visible
05 Mar ? 05:33:05 19° WSW 05:36:02 44° WNW 05:40:29 10° NNE visible
06 Mar ? 04:17:48 44° SSE 04:18:41 51° ESE 04:23:11 10° NE visible
06 Mar ? 05:55:16 13° W 05:58:23 25° NW 06:02:12 10° N visible
07 Mar ? 03:02:25 14° E 03:02:25 14° E 03:04:18 10° ENE visible
07 Mar ? 04:39:53 59° SW 04:40:42 79° WNW 04:45:20 10° NNE visible
